Weather in Vyshneve

Ukraine / Dnipropetrovsk Region     48°01′47″N   33°50′07″E
temp.,
°C
wind,
m/s
gust,
m/s
humid.,
%
clouds,
%
prec.,
mm/h
press.,
hPa
HPBL,
m
25 february, thu
thu2523:00−2ssw576891 0.0 1036443
02:00−2ssw477495 0.0 1035395
05:00−2sw5874100 0.0 1033379
08:00−1sw4781100 0.0 1033339
11:000sw4885100 0.0 1032291
14:00+2sw469099 0.0 1031218
17:00+2wsw489598 0.0 1029193
20:00+3wsw489999 0.0 1029172
26 february, fri
fri2623:00+3wsw4699100 0.0 1029123
02:00+3w3699100 0.0 1028116
05:00+2wnw4899100 0.0 1027208
08:00+2nw3598100 0.0 1027138
11:00+4wsw4796100 0.0 1026354
14:00+5wsw689696 0.0 1024367
17:00+4w5998100 0.0 1021339
20:00+3wnw5898100 0.0 1021247
27 february, sat
sat2723:00+3w3698100 0.0 1020140
02:00+4w3799100 0.0 1018173
05:00+3wnw349394 0.0 101782
08:00+4wnw489496 0.3 1016388
11:00+6nw7972100 0.4 10161056
14:00+5nw6866100 0.4 10151235
17:00+5nw597899 0.1 1014775
20:00+3wnw599597 0.2 1015540
28 february, sun
sun2823:00+3nw5994100 0.1 1015558
02:00+2nw6997100 0.3 1016598
05:000nnw71191100 0.2 1017616
08:00+1nnw6108593 0.2 1020808
11:00+3nnw7106998 0.1 10211197
14:00+4nnw796799 0.3 10211174
17:00+2nnw6973100 0.1 1022927
20:000nnw499099 0.1 1024418
1 march, mon
mon123:000nnw489280 0.0 1026380
02:00−1nnw379490 0.0 1026300
05:00−1nnw3693100 0.1 1027245
08:00+1nnw4580100 0.1 1029481
11:00+3n456496 0.1 1030994
14:00+3nne456198 0.3 10311117
17:00+2nne366893 0.1 1031266
20:00−1nne337888 0.1 103387